Regional Weather Roundup
Issued by NWS Newport/Morehead, NC

Current Version | Previous Version | Graphics & Text | Print | Product List | Glossary Off
Versions: 1 2 3 4 5 6 7 8 9 10 11 12 13 14 15 16 17 18 19 20 21 22 23 24 25 26 27 28 29 30 31 32 33 34 35 36 37 38 39 40 41 42 43 44 45 46 47 48 49 50

000
ASUS42 KMHX 191813
RWRMHX
WEATHER ROUNDUP FOR EASTERN NORTH CAROLINA
NATIONAL WEATHER SERVICE NEWPORT/MOREHEAD CITY NC
200 PM EDT TUE SEP 19 2017

NOTE: "FAIR" INDICATES FEW OR NO CLOUDS BELOW 12,000 FEET
WITH NO SIGNIFICANT WEATHER AND/OR OBSTRUCTIONS TO VISIBILITY

NCZ015>017-031-032-045>047-102-103-191900-
NORTH COAST

CITY           SKY/WX    TMP DP  RH WIND       PRES   REMARKS
EDENTON        CLOUDY    78  70  77 CALM      29.89F
ELIZABETH CITY LGT RAIN  73  70  90 NW20G25   29.86F
KITTY HAWK     CLOUDY    70  68  93 NW9G18    29.81S FOG
MANTEO         CLOUDY    72  68  89 NW14G23   29.84S

$$

NCZ045>047-081-094-103-104-191900-
CENTRAL COAST

CITY           SKY/WX    TMP DP  RH WIND       PRES   REMARKS
FRISCO         CLOUDY    75  69  81 NW13G24   29.83F

$$

NCZ095-097-098-100-101-191900-
SOUTHERN COAST

CITY           SKY/WX    TMP DP  RH WIND       PRES   REMARKS
BEAUFORT       PTSUNNY   81  69  67 NW17      29.88F
CEDAR ISLAND   NOT AVBL
JACKSONVILLE   MOSUNNY   83  69  62 NW13      29.90F
PINEY ISLAND     N/A    N/A N/A N/A NW14      29.87F
WILMINGTON     SUNNY     84  66  54 NW10      29.93F


$$

NCZ011>013-027>030-043-044-078>080-089-090>093-098-191900-
COASTAL PLAIN

CITY           SKY/WX    TMP DP  RH WIND       PRES   REMARKS
AHOSKIE          N/A     78  66  66 N7        29.92F
CLINTON        SUNNY     83  67  57 NW9       29.95F
ELIZABETHTOWN  NOT AVBL
GOLDSBORO      MOSUNNY   82  68  62 W10G18    29.92F
GREENVILLE     MOSUNNY   81  64  57 N8        29.94F
HAVELOCK       PTSUNNY   83  68  60 NW15      29.90F
KENANSVILLE    MOSUNNY   81  68  65 NW7       29.94F
KINSTON        MOSUNNY   82  64  54 NW12      29.93F
NEW BERN       PTSUNNY   80  67  64 N13G21    29.91F
RICHLANDS      MOSUNNY   82  68  62 NW12      29.92F
ROCKY MOUNT    SUNNY     82  68  62 NW8       29.94F
WASHINGTON     CLOUDY    80  66  62 NW7       29.91F
WHITEVILLE     SUNNY     83  64  52 NW3       29.95F

$$

AMZ130-135-150-152-154-156-158-170-250-252-270-ANZ085-086-088-633-658-670-191900-
MARINE OBSERVATIONS

STATION/POSITION TIME  TEMP    WIND        PRES    WAVE   SWELL
                       AIR SEA DIR/SP/G            HT/PER HT/PER
                 (UTC) (F)     (DEG/KT/KT) (MB)    (FT/S) (FT/S)
CHESAPEAKE LIGHT NOT AVBL
64 E VA BEACH    1750   70 71  340/ 31/ 39 1005.5   16/10  13/10
DUCK             1742   71 75  330/ 22/ 27 1009.3
2 E DUCK         1800      75                N/A    10/13   7/13
OREGON INLET     1742   71 74  310/ 20/ 24 1009.4
13E OREGON INLT  1748      74                N/A    13/13  13/13
HATTERAS CG      1742   74 76  330/ 21/ 26 1010.3
DIAMOND BUOY     1750   73 75  320/ 23/ 27 1009.4   10/13   7/13
CAPE LOOKOUT     1800   78     320/ 11/ 15 1011.5
BEAUFORT LAB     1742   79 74  330/ 10/ 14 1011.5
30 SE NEW RVR IN 1708   76     330/ 14/ 19 1013.1
30 SE NEW RVR IN NOT AVBL
27 SE WRIGHTSVLE NOT AVBL
5 SE WRIGHTSVLE  1708   77 78  330/ 12/ 16 1013.7
225 S CAPE HAT   1750   80 80  300/ 16/ 17 1012.5    9/11   7/11
41 SE CHARLESTON 1750   77 82  350/  8/ 10 1014.6    5/12   5/12

$$




USA.gov is the U.S. government's official web portal to all federal, state and local government web resources and services.